Regional Weather Roundup
Issued by NWS Portland, ME

Home | Current Version | Previous Version | Text Only | Print | Product List | Glossary On
Versions: 1 2 3 4 5 6 7 8 9 10 11 12 13 14 15 16 17 18 19 20 21 22 23 24 25 26 27 28 29 30 31 32 33 34 35 36 37 38 39 40 41 42 43 44 45 46 47 48 49 50
000
ASUS41 KGYX 190110
RWRGYX
WEATHER ROUNDUP FOR MAINE AND NEW HAMPSHIRE
NATIONAL WEATHER SERVICE GRAY ME
800 PM EST WED JAN 18 2017

MEZ002-005-006-010-012-015-018-020-021-024-026-027-029-190200-
MAINE

CITY           SKY/WX    TMP DP  RH WIND       PRES   REMARKS
PORTLAND       CLOUDY    27  23  85 N9        30.09S
SANFORD        FLURRIES  26  25  96 N8        30.07F
BAR HARBOR     CLOUDY    27  19  72 NE6       30.11F
WISCASSET      CLOUDY    29  22  75 VRB3      30.10F
ROCKLAND       CLOUDY    30  24  78 NE10      30.09F
FRYEBURG       LGT SNOW  25  23  92 CALM      30.08F FOG
LEWISTONAUBURN FLURRIES  24  21  88 N8        30.08F
AUGUSTA        CLOUDY    23  17  78 N6        30.09F
WATERVILLE     CLOUDY    23  18  81 N5        30.07F
BANGOR         CLOUDY    25  18  74 NE5       30.11F
GREENVILLE       N/A     17  15  92 SE6       29.98F
MILLINOCKET    CLOUDY    22  14  71 CALM      30.11F
HOULTON        CLOUDY    20  11  68 CALM      30.09F
PRESQUE ISLE   CLOUDY    18  10  71 SE8       30.08F
FRENCHVILLE    CLOUDY    17   7  64 SE13      30.01F WCI   4
CARIBOU        CLOUDY    18   9  68 SE9       30.06F
$$

NHZ002-005-008-009-011-012-014-190200-
NEW HAMPSHIRE

CITY           SKY/WX    TMP DP  RH WIND       PRES   REMARKS
PORTSMOUTH     LGT SNOW  29  27  91 N6        30.06S VSB 1
ROCHESTER      CLOUDY    28  24  85 N8        30.06S
NASHUA         LGT SNOW  31  30  96 N5        30.07S FOG
MANCHESTER     FLURRIES  31  28  89 N6        30.05S
CONCORD        CLOUDY    30  26  85 N5        30.06F
LACONIA        LGT SNOW  27  25  92 E8        30.06F FOG
PLYMOUTH       LGT SNOW  28  27  93 CALM      30.05F
BERLIN         CLOUDY    28  20  71 CALM      29.99F
WHITEFIELD     CLOUDY    30  22  72 NE3       29.97F
JAFFREY        CLOUDY    30  27  88 CALM      30.02S
KEENE          MIX PCPN  32  29  88 N3        30.05S
LEBANON        CLOUDY    32  30  92 CALM      30.02F
MT WASHINGTON  DRFTSNOW  16  16 100 SW29        N/A  VSB 1/16WCI  -4
$$

VTZ005-007-008-190200-
VERMONT

CITY           SKY/WX    TMP DP  RH WIND       PRES   REMARKS
ST JOHNSBURY     N/A     32  29  88 MISG      29.98S
MONTPELIER     CLOUDY    30  28  92 S7        29.99F
BURLINGTON     CLOUDY    36  32  85 S10       29.96F
$$

MAZ007-012-024-CTZ003-RIZ002-NYZ038-NYZ072-190200-
SOUTHERN NEW ENGLAND AND NY

CITY           SKY/WX    TMP DP  RH WIND       PRES   REMARKS
BOSTON         LGT RAIN  34  34 100 N8        30.05S FOG
WORCESTER      FOG       30  29  96 N8        30.01R VSB 1/4
NANTUCKET      CLOUDY    41  39  93 NE15G22   29.95S FOG
PROVIDENCE     CLOUDY    36  35  96 N8        30.03R FOG
HARTFORD       DRIZZLE   35  33  92 N6        30.05S
ALBANY         DRZL/FOG  37  34  89 S5        30.03F VSB 1
NEW YORK CITY  CLOUDY    42  37  82 N7        30.03F
$$

ANZ081-ANZ082-ANZ150-NHZ014-MEZ023>029-190200-
COASTAL MARINE OBSERVATIONS

STATION/POSITION TIME  TEMP    WIND        PRES    WAVE
                       AIR SEA DIR/SP/G            HT/PER
                 (UTC) (F)     (DEG/KT/KT) (MB)    (FT/S)
MOUNT DESERT ROC 0100   34                 1018.5F
MATINICUS ROCK   0000   35      80/ 19/ 21 1018.0R
ISLE OF SHOALS   0000   33      10/ 19/ 21 1017.5R
CASHES LEDGE BUO 2350   38 46   90/ 17/ 23 1017.2    9/ 9
GEORGES BANK BUO 2350   44 44              1011.0   12/ 8
$$

.............KEY..............
   WCI - WIND CHILL
   TC  - TEMPERATURE IN CELSIUS
   VSB - VISIBILITY IN MILES
   HX  - HEAT INDEX
   FAIR- INDICATES FEW OR NO CLOUDS BELOW 12,000 FT, WITH NO
         SIGNIFICANT WEATHER AND/OR OBSTRUCTIONS TO VISIBILITY.






USA.gov is the U.S. government's official web portal to all federal, state and local government web resources and services.